EW4502 Weather Reports


Display with metric or nautical units.
time (UTC)temp
F
wind
direction
speed
MPH
gust
MPH
rain 1hr
in
rain 24hr
in
rain mn
in
humidity
%
barometer
mb
20180918093052 66 32 0.0 0.0 0.39 0.68 0.67 97 1009.0
20180918090052 67 32 0.0 1.0 0.21 0.43 0.42 97 1009.7
20180918084610 67 32 0.0 2.0 0.14 0.35 0.34 97 1010.0
20180918083041 67 33 0.0 1.0 0.09 0.28 0.28 97 1010.3
20180918081550 67 33 0.0 1.0 0.04 0.23 0.22 97 1010.4
20180918080044 67 33 0.0 0.0 0.03 0.22 0.21 97 1010.7
20180918074552 68 33 0.0 2.0 0.03 0.21 0.20 97 1010.7
20180918073045 68 22 0.0 0.0 0.05 0.20 0.19 97 1010.7
20180918071539 68 22 0.0 1.0 0.06 0.19 0.18 97 1010.9
20180918070030 68 22 0.0 1.0 0.06 0.19 0.18 97 1010.8
20180918064537 68 22 0.0 1.0 0.05 0.17 0.16 97 1011.2
20180918063055 68 22 0.0 1.0 0.05 0.15 0.14 97 1011.6
20180918061527 68 331 0.0 1.0 0.05 0.13 0.12 97 1012.0
20180918060036 68 331 0.0 2.0 0.07 0.13 0.12 97 1012.2
20180918054527 68 331 0.0 0.0 0.08 0.12 0.11 96 1012.3
20180918053026 68 331 0.0 1.0 0.08 0.10 0.09 96 1012.3
20180918051515 68 331 0.0 1.0 0.06 0.07 0.06 96 1012.6
20180918050023 68 331 0.0 2.0 0.04 0.05 0.04 96 1012.7
20180918044523 68 48 0.0 1.0 0.04 0.04 0.03 95 1012.7
20180918043012 68 48 0.0 1.0 0.02 0.02 0.01 95 1012.8
20180918041531 68 74 0.0 1.0 0.01 0.01 0.00 95 1012.9
20180918040037 68 90 0.0 2.0 0.01 0.01 0.00 95 1012.9
20180918034513 68 98 0.0 1.0 0.00 0.00 0.00 95 1013.0
20180918033025 68 98 0.0 3.0 0.00 0.00 0.00 95 1013.0
20180918030324 68 198 0.0 3.0 0.00 0.00 0.00 94 1013.0
20180918021501 68 36 0.0 1.0 0.00 0.00 0.00 94 1013.2
20180918020128 68 36 0.0 1.0 0.00 0.00 0.00 94 1013.4
20180918013013 68 206 0.0 1.0 0.00 0.00 0.00 92 1013.3
20180918010039 68 206 0.0 0.0 0.00 0.00 0.00 92 1013.7
20180918004515 68 206 0.0 0.0 0.00 0.01 0.00 91 1013.7
20180918003009 68 206 0.0 1.0 0.00 0.01 0.00 91 1013.8
20180918001513 69 206 0.0 1.0 0.00 0.01 0.00 91 1013.9
20180918000011 69 206 0.0 0.0 0.00 0.01 0.00 90 1014.1
20180917234506 69 206 0.0 2.0 0.00 0.35 0.00 89 1014.0
20180917233012 69 206 0.0 0.0 0.00 0.35 0.00 89 1014.2
20180917231516 70 206 0.0 1.0 0.00 0.35 0.00 87 1014.4
20180917230025 70 206 0.0 1.0 0.00 0.35 0.00 86 1014.4
20180917220005 73 206 0.0 1.0 0.00 0.35 0.00 82 1014.5
20180917213003 75 206 0.0 3.0 0.00 0.35 0.00 77 1014.5
20180917210003 77 30 1.0 4.0 0.00 0.35 0.00 76 1014.7
20180917204505 78 44 1.0 6.0 0.00 0.35 0.00 73 1014.8
20180917203045 78 78 0.0 5.0 0.00 0.35 0.00 76 1015.0
20180917200005 78 86 0.0 2.0 0.00 0.35 0.00 78 1015.1
20180917194526 78 56 1.0 6.0 0.00 0.35 0.00 74 1015.2
20180917193018 79 76 0.0 3.0 0.00 0.35 0.00 72 1015.4
20180917191524 81 89 1.0 4.0 0.00 0.35 0.00 70 1015.5
20180917190012 81 175 1.0 6.0 0.00 0.35 0.00 74 1015.8
20180917184520 80 348 0.0 3.0 0.00 0.35 0.00 80 1015.9
20180917183026 79 28 0.0 4.0 0.00 0.35 0.00 76 1016.1
20180917181526 79 30 1.0 5.0 0.00 0.35 0.00 73 1016.2
20180917180006 78 28 1.0 5.0 0.00 0.35 0.00 78 1016.3
20180917174705 78 40 1.0 4.0 0.00 0.35 0.00 77 1016.5
20180917164517 81 50 0.0 2.0 0.00 0.35 0.00 73 1017.3
20180917163003 81 19 1.0 3.0 0.00 0.35 0.00 77 1017.4
20180917160001 79 331 0.0 2.0 0.00 0.35 0.00 83 1017.7
20180917154615 77 13 0.0 4.0 0.00 0.35 0.00 87 1018.0
20180917153101 75 336 0.0 4.0 0.00 0.35 0.00 84 1018.2
20180917151608 72 11 1.0 3.0 0.00 0.35 0.00 93 1018.5
20180917150058 71 50 0.0 3.0 0.00 0.35 0.00 98 1018.5
20180917144608 69 72 0.0 2.0 0.00 0.35 0.00 99 1018.8
20180917143043 68 36 0.0 1.0 0.00 0.35 0.00 99 1018.9
20180917140002 68 39 0.0 2.0 0.00 0.35 0.00 99 1019.3
20180917133006 67 39 0.0 1.0 0.00 0.35 0.00 98 1019.4
20180917131505 67 39 0.0 0.0 0.00 0.35 0.00 98 1019.4